AirNav   Pilot Hours Calculator
 
 1551 users online  

NH08 Marbina Woods Heliport
North Stratford, New Hampshire, USA

GOING TO NORTH STRATFORD?


FAA INFORMATION EFFECTIVE 31 DECEMBER 2020

Location

FAA Identifier: NH08
Lat/Long: 44-41-35.8500N 071-34-30.0300W
44-41.597500N 071-34.500500W
44.6932917,-71.5750083
(estimated)
Elevation: 1429 ft. / 436 m (estimated)
From city: 4 miles SSE of NORTH STRATFORD, NH
Time zone: UTC -5 (UTC -4 during Daylight Saving Time)
Zip code: 05905

Heliport Operations

Heliport use: Private use. Permission required prior to landing
Activation date: 09/2016
Control tower: no
ARTCC: BOSTON CENTER
FSS: BANGOR FLIGHT SERVICE STATION
Attendance: 
Wind indicator: yes
Segmented circle: no

Heliport Communications

WX ASOS at BML (18 nm SE): 135.175 (603-449-3328)
WX ASOS at HIE (20 nm S): 118.525 (603-837-2769)

Nearby radio navigation aids

VOR radial/distance  VOR name  Freq  Var
YSCr183/38.5SHERBROOKE VOR/DME113.2017W

 
NDB name  Hdg/Dist  Freq  Var  ID
MAHN030/20.438617WGMA --. -- .-
RANGELEY266/37.922118WRQM .-. --.- --

Heliport Services

Runway Information

Helipad H1

Dimensions: 60 x 60 ft. / 18 x 18 m
Surface: concrete
Latitude: 44-41.597500N
Longitude: 071-34.500500W
Elevation: 1429.0 ft.
Traffic pattern: leftleft

Heliport Ownership and Management from official FAA records

Ownership: Privately-owned
Owner: MARTINE ROTHBLATT
33 CAVE ROAD
NORTH STRATFORD, NH 03590
Phone 321-777-2061
Manager: ROBIN RHEAUME
33 CAVE ROAD
NORTH STRATFORD, NH 03590
Phone 603-331-1847

Additional Remarks

FOR CD CTC BOSTON ARTCC AT 603-879-6859.

Instrument Procedures

There are no published instrument procedures at NH08.

Some nearby airports with instrument procedures:

KBML - Berlin Regional Airport (18 nm E)
KHIE - Mount Washington Regional Airport (20 nm S)
KCDA - Caledonia County Airport (20 nm W)
KEFK - Northeast Kingdom International Airport (30 nm NW)
0B1 - Bethel Regional Airport (36 nm SE)
 
Loc | Ops | Rwys | IFR | FBO | Links
Com | Nav | Svcs | Stats | Notes
Aerial photo
No photo
 
Airport distance calculator
Flying to Marbina Woods Heliport? Find the distance to fly.

From to NH08

Sunrise and sunset
Times for 15-Jan-2021
 Local
(UTC-5)
 Zulu
(UTC)
Morning civil twilight06:4911:49
Sunrise07:2112:21
Sunset16:3121:31
Evening civil twilight17:0322:03

Current date and time
Zulu (UTC)  15-Jan-2021 18:05:14
Local (UTC-5)  15-Jan-2021 13:05:14
 
METAR
KBML 
18nm E 
151752Z AUTO 09008KT 10SM FEW036 03/M05 A3000 RMK AO2 SLP172 T00331050 10039 21022 58017
KHIE 
20nm S 
151752Z AUTO 18004KT 10SM CLR 04/M05 A2999 RMK AO2 SLP167 T00391050 10039 21039 56018
KCDA 
20nm W 
151755Z AUTO 11005KT 10SM CLR 03/M03 A3000 RMK AO2 T00261032 10033 21027
K1V4 
25nm SW 
151754Z AUTO 04/M02 A2999 RMK AO1 SLP163 T00391022 10039 21022 58019
KMWN 
28nm SE 
151654Z 00000KT 60SM BKN/// FEW180 M03/M18 RMK TPS LWR BKN050
KEFK 
30nm NW 
151755Z AUTO 22005KT 5SM HZ SCT033 01/M02 A3000 RMK AO2 T00081020 10014 21038
TAF
KHIE 
20nm S 
151742Z 1518/1618 16005KT P6SM BKN200 FM160500 12007KT P6SM OVC030 FM161100 12012G22KT 5SM -SN OVC025
NOTAMs
Click for the latest NOTAMs
NOTAMs are issued by the DoD/FAA and will open in a separate window not controlled by AirNav.

 

 
 

Would you like to see your business listed on this page?

 If your business provides an interesting product or service to pilots, flight crews, aircraft, or users of the Marbina Woods Heliport, you should consider listing it here.  To start the listing process, click on the button below
 
Add a business
 

Other Pages about Marbina Woods Heliport

Update a link
 
Copyright © AirNav, LLC. All rights reserved. Privacy Policy  Contact